Wind_Speed
14 14 13 14 14 14 15 15 16 17 16 15 16 16 16 16 14 14 14 13 12 11 9 9 7 6 4 4 4 4 6 5 6 7 7 6 8 10 10 13 17 14 14
13 16 16 15 14 14 15 15 15 16 16 15 15 16 16 15 13 12 13 12 12 11 10 8 7 6 6 6 7 6 6 6 7 8 10 15 16 13 16 15 15 16 14
18 17 17 17 15 15 16 15 14 15 16 15 16 16 16 15 14 13 12 12 12 11 9 8 8 8 8 8 7 6 6 6 7 8 9 13 20 24 21 19 19 17 17
20 17 17 17 17 15 16 15 14 13 15 16 15 15 16 15 14 12 11 11 11 10 9 8 8 8 9 7 7 6 6 6 6 7 7 11 7 6 32 25 24 20 20
21 18 17 18 20 17 13 11 15 16 14 14 14 13 15 12 12 13 13 11 10 10 9 7 8 9 8 6 7 7 8 10 12 14 9 11 14 9 20 25 35 25 22
20 20 18 17 18 8 16 17 7 18 17 17 17 13 16 12 12 13 13 10 10 8 7 7 7 6 5 5 7 10 9 14 11 7 4 2 9 12 14 25 40 34 25
17 18 17 16 16 12 11 16 8 14 13 19 19 17 15 15 4 15 14 12 10 8 7 6 6 5 5 7 10 9 7 11 8 3 4 4 3 4 6 22 42 38 29
16 16 16 16 16 14 18 13 5 10 17 21 21 13 11 8 2 7 16 13 11 8 8 6 5 4 6 7 9 12 7 9 12 4 4 5 4 1 7 21 41 38 32
16 16 17 17 14 10 16 8 5 10 16 15 18 12 9 6 4 9 14 12 10 9 8 7 5 5 5 10 11 11 11 10 11 7 4 5 4 1 3 22 34 38 33
17 17 17 15 11 8 5 6 5 9 17 18 15 12 8 6 5 10 13 11 10 9 8 6 3 6 6 7 7 6 8 7 6 5 3 7 3 1 5 14 27 35 36
17 17 17 15 11 7 4 5 3 6 16 16 14 12 6 3 6 7 12 11 11 9 7 4 2 4 6 5 7 7 7 8 6 3 3 4 2 2 8 24 26 29 33
18 17 17 15 12 10 9 5 3 4 6 11 9 9 7 6 10 14 12 13 12 9 5 2 3 4 6 7 5 8 8 8 7 5 3 2 1 3 8 20 22 25 25
15 14 15 15 15 13 9 6 5 5 6 9 8 7 8 8 10 14 15 15 13 9 6 3 3 4 6 5 6 8 10 9 8 5 3 2 2 4 11 16 19 20 20
13 16 15 12 14 14 12 8 6 6 6 8 8 9 8 11 11 15 18 17 12 9 5 2 3 4 5 5 5 8 9 10 10 5 3 4 8 8 12 14 15 15 15
13 15 14 12 12 12 10 9 8 7 8 11 12 10 9 13 14 19 17 16 12 9 4 3 3 6 3 2 6 7 9 9 8 7 4 5 8 10 12 14 13 13 13
14 13 12 11 11 11 10 10 9 7 9 9 14 16 14 17 19 18 18 15 12 9 6 2 4 5 3 3 5 6 9 8 8 8 6 4 7 9 10 11 9 8 8
13 12 11 11 11 11 13 11 10 8 5 6 12 19 19 19 19 19 18 15 13 9 7 4 2 2 2 2 2 4 6 8 9 9 8 6 5 7 8 8 10 9 7
10 10 11 10 12 13 14 14 12 11 6 7 14 19 19 20 20 20 18 16 13 10 6 4 4 3 1 2 4 4 5 7 8 8 8 8 6 5 7 7 8 8 5
9 8 10 9 10 15 14 14 13 12 8 10 16 19 17 21 19 19 17 15 12 10 7 3 3 4 4 4 4 6 4 5 7 8 8 7 7 6 5 5 5 6 6
6 6 4 7 9 11 11 12 13 10 7 11 15 16 19 22 20 18 15 13 11 9 4 5 3 4 4 5 5 3 4 6 7 7 7 7 6 6 5 4 4 5 6
5 3 4 4 8 10 11 12 12 11 9 11 14 16 21 21 20 17 14 12 11 9 5 4 3 5 4 4 4 4 6 7 4 2 4 3 4 5 6 5 5 5 7
7 5 4 3 4 8 12 13 13 12 11 14 15 21 21 19 20 18 14 10 10 8 6 3 3 5 5 5 5 6 4 4 3 3 6 4 3 3 4 5 5 5 4
8 5 3 4 5 5 9 12 12 12 13 16 19 22 20 17 18 19 14 12 10 10 9 4 2 4 6 5 6 6 5 5 5 7 6 2 4 3 2 2 4 6 6
7 5 3 4 6 8 9 9 10 10 11 15 19 22 21 17 15 19 15 13 11 11 9 7 3 3 3 3 4 4 3 7 8 6 3 4 5 2 1 4 4 5 5
7 4 2 2 6 8 10 9 9 13 14 17 19 20 21 17 16 17 15 13 11 12 10 7 5 5 4 2 3 3 3 4 4 4 1 5 3 1 3 4 5 4 3
8 5 3 2 3 8 10 11 12 15 17 18 15 23 20 16 16 17 16 14 12 11 11 9 6 5 4 4 3 2 1 5 3 5 6 5 4 1 3 5 6 5 5
Wind_Direction
167 157 149 142 138 136 131 129 134 140 142 150 156 160 160 157 158 156 156 162 167 173 163 172 182 188 206 229 243 253 254 241 234 220 191 192 187 188 169 159 142 138 128
185 168 160 152 147 144 139 139 143 143 146 153 161 163 166 163 165 166 168 174 178 177 181 180 193 204 216 241 253 258 260 254 248 237 225 213 225 208 192 182 157 148 139
189 181 168 161 156 154 147 148 153 154 153 158 166 169 171 170 172 173 178 183 189 185 192 187 199 217 234 249 264 257 261 252 248 250 241 236 241 220 216 194 176 164 154
190 184 179 172 162 160 152 153 163 173 169 166 170 170 181 177 182 181 182 190 193 193 197 199 208 225 246 255 264 264 262 260 258 246 235 220 233 210 211 206 194 177 166
190 188 193 191 177 162 158 181 170 183 188 175 173 178 193 188 191 191 181 187 189 195 196 206 224 231 245 255 270 280 277 267 262 281 252 267 239 233 212 219 199 186 176
192 195 199 202 184 171 211 196 184 181 186 191 185 194 202 215 205 192 193 190 192 188 193 202 219 232 245 254 256 276 283 313 341 260 291 277 226 222 242 212 193 192 182
200 203 202 206 206 217 194 206 181 164 199 202 194 204 206 215 205 205 192 187 187 188 188 197 211 227 253 260 256 256 274 306 351 265 289 340 282 238 270 204 187 189 186
204 212 205 206 226 231 233 219 218 215 199 201 200 201 205 212 284 205 190 187 180 186 176 182 201 233 259 281 294 304 295 306 316 316 275 343 332 6 314 197 184 187 187
200 208 205 213 221 231 228 269 210 257 202 183 208 193 189 207 235 176 169 182 169 175 165 166 197 239 286 300 299 307 311 298 315 294 315 300 339 34 7 166 175 181 188
203 202 207 212 207 216 179 133 220 226 186 189 186 185 178 226 193 164 165 165 164 161 158 165 229 276 316 334 336 337 10 15 1 318 244 264 312 162 151 185 170 193 186
200 206 209 210 220 217 190 212 242 200 204 196 188 180 185 176 184 174 156 154 158 155 157 165 282 2 21 16 38 27 18 25 9 356 292 263 297 180 175 141 150 179 175
200 205 209 212 210 209 211 233 216 172 215 193 189 182 180 159 169 164 157 158 153 153 158 130 91 32 24 35 12 12 22 23 13 7 302 299 283 188 176 151 153 162 169
194 199 200 210 211 213 215 224 217 223 209 172 182 191 185 169 169 170 159 158 151 153 159 129 37 32 17 42 34 24 24 27 33 19 24 66 117 148 162 163 169 171 167
177 184 190 205 211 213 214 229 230 230 225 206 223 234 222 186 185 172 162 157 153 156 162 176 26 360 10 64 48 31 34 31 34 28 68 104 132 115 147 154 149 149 158
177 187 189 194 204 211 223 236 240 246 254 244 239 225 200 184 176 169 163 155 156 159 149 117 352 343 15 21 35 32 46 42 43 45 74 129 137 144 142 157 161 166 173
173 179 186 197 208 224 229 235 240 269 266 259 239 215 201 173 170 170 165 158 162 162 182 133 28 4 26 65 56 55 56 51 57 60 56 127 157 169 161 163 173 187 202
177 185 199 213 218 232 238 235 227 250 258 247 196 190 184 177 177 171 167 164 169 167 142 153 58 29 42 34 63 73 56 59 60 66 68 87 144 178 181 186 184 187 204
174 195 214 227 230 240 241 229 223 238 245 211 184 182 180 179 177 173 172 170 174 178 166 124 111 93 347 338 116 96 72 76 64 66 66 71 88 132 161 174 187 190 187
176 190 208 226 235 243 237 218 219 228 247 207 191 189 191 181 179 177 175 176 177 180 173 136 163 99 84 127 109 121 89 86 79 69 71 74 74 78 102 136 178 193 196
192 211 220 244 241 240 225 208 217 223 225 177 183 193 188 176 180 179 183 186 189 187 179 153 133 119 106 117 121 121 122 118 93 81 70 73 81 89 90 106 136 158 173
201 227 252 277 248 228 214 206 209 219 211 189 190 182 172 174 178 178 186 191 196 187 179 184 139 121 104 129 131 132 127 121 140 105 87 83 102 106 110 118 135 147 149
221 242 263 259 225 227 209 198 204 212 204 199 193 174 176 176 180 179 188 196 202 198 186 190 155 130 125 118 120 151 171 145 159 165 144 116 116 133 128 142 138 144 156
218 226 252 240 207 192 195 197 207 217 196 197 184 177 182 181 187 189 193 202 205 209 202 191 168 151 145 119 116 123 153 177 182 155 149 96 153 122 95 168 171 166 162
193 217 243 230 208 198 191 199 204 212 193 185 184 188 189 192 194 197 197 199 212 214 216 207 201 205 190 173 125 129 139 170 158 194 187 166 121 106 1 285 239 196 185
185 200 225 262 214 201 197 195 198 190 189 186 189 193 194 203 201 195 196 200 208 212 215 226 232 237 219 203 170 122 155 162 170 185 214 184 196 294 320 292 225 223 225
209 215 231 235 221 213 207 198 192 198 197 202 200 194 192 200 198 200 201 209 214 209 216 217 231 230 229 238 212 188 138 168 145 191 173 178 139 93 355 272 218 240 253
Height
3187 3188 3189 3190 3192 3193 3195 3197 3197 3198 3200 3201 3202 3203 3204 3205 3207 3208 3211 3212 3213 3213 3215 3215 3216 3217 3218 3218 3219 3219 3220 3221 3221 3222 3223 3225 3225 3226 3226 3226 3224 3227 3229
3187 3188 3189 3191 3192 3194 3195 3197 3199 3200 3201 3202 3203 3204 3205 3206 3208 3210 3212 3213 3214 3215 3216 3217 3218 3219 3219 3219 3219 3219 3220 3221 3220 3221 3220 3222 3225 3225 3226 3227 3227 3228 3230
3186 3188 3190 3191 3192 3194 3196 3198 3200 3201 3201 3202 3203 3205 3206 3207 3208 3210 3212 3214 3215 3216 3217 3218 3219 3219 3219 3219 3219 3219 3219 3220 3219 3219 3219 3220 3221 3222 3225 3226 3227 3229 3230
3185 3188 3190 3192 3193 3195 3197 3199 3200 3203 3202 3204 3204 3205 3206 3207 3209 3211 3213 3214 3215 3216 3217 3218 3219 3219 3218 3219 3218 3218 3219 3219 3219 3218 3216 3215 3218 3219 3222 3225 3227 3228 3230
3184 3187 3189 3192 3194 3195 3198 3200 3200 3201 3204 3205 3205 3204 3206 3207 3208 3211 3213 3214 3216 3216 3218 3219 3219 3219 3219 3218 3218 3217 3217 3217 3216 3214 3213 3214 3215 3217 3218 3222 3226 3227 3230
3184 3187 3189 3191 3193 3195 3197 3198 3198 3199 3203 3205 3204 3204 3205 3208 3205 3207 3212 3214 3215 3216 3218 3219 3219 3219 3218 3217 3217 3216 3215 3213 3210 3210 3214 3213 3212 3213 3214 3213 3224 3225 3229
3185 3187 3189 3191 3193 3196 3195 3197 3198 3200 3202 3201 3204 3204 3204 3205 3207 3209 3211 3213 3215 3216 3218 3218 3218 3217 3217 3215 3214 3212 3212 3212 3212 3210 3212 3211 3210 3210 3211 3210 3219 3224 3229
3184 3186 3189 3191 3191 3194 3194 3199 3199 3199 3197 3200 3202 3202 3203 3205 3206 3206 3210 3213 3214 3217 3216 3217 3218 3217 3216 3215 3212 3210 3205 3209 3210 3208 3210 3210 3208 3209 3206 3207 3215 3222 3228
3183 3185 3188 3189 3192 3191 3196 3196 3198 3199 3198 3200 3199 3203 3203 3204 3204 3205 3209 3212 3214 3216 3216 3217 3217 3216 3215 3214 3212 3211 3211 3210 3209 3207 3208 3208 3209 3208 3206 3206 3213 3219 3226
3182 3185 3187 3188 3191 3193 3194 3193 3197 3194 3198 3198 3200 3202 3201 3203 3204 3206 3209 3212 3214 3215 3216 3217 3217 3216 3215 3213 3212 3210 3210 3210 3209 3209 3209 3208 3208 3209 3208 3209 3212 3218 3224
3182 3184 3186 3188 3189 3191 3192 3194 3196 3196 3197 3198 3200 3200 3202 3203 3204 3207 3209 3212 3214 3215 3216 3216 3217 3216 3214 3214 3212 3211 3210 3209 3209 3209 3209 3209 3208 3208 3210 3212 3214 3218 3224
3181 3183 3185 3187 3188 3190 3192 3194 3194 3195 3195 3197 3199 3199 3200 3202 3205 3207 3210 3213 3214 3216 3216 3217 3216 3215 3216 3215 3214 3212 3210 3210 3209 3209 3210 3209 3208 3208 3210 3213 3216 3220 3224
3181 3182 3184 3186 3187 3190 3192 3193 3193 3194 3196 3196 3199 3200 3200 3202 3205 3208 3211 3213 3214 3216 3217 3217 3217 3216 3216 3216 3215 3213 3211 3210 3210 3209 3210 3210 3209 3210 3211 3214 3218 3221 3225
3180 3182 3184 3185 3187 3189 3191 3192 3194 3194 3195 3196 3197 3198 3199 3202 3205 3208 3210 3212 3214 3216 3217 3217 3217 3217 3217 3217 3216 3214 3212 3211 3210 3211 3211 3211 3212 3213 3214 3216 3218 3221 3225
3180 3181 3183 3184 3186 3187 3189 3190 3192 3192 3194 3195 3196 3197 3198 3202 3205 3208 3210 3212 3215 3216 3217 3217 3217 3217 3217 3217 3216 3215 3214 3213 3212 3212 3212 3212 3214 3216 3218 3220 3222 3224 3227
3179 3180 3182 3184 3184 3186 3188 3189 3190 3191 3191 3192 3192 3195 3197 3200 3205 3208 3210 3212 3215 3216 3216 3217 3217 3216 3217 3217 3217 3217 3216 3215 3214 3214 3214 3214 3215 3217 3219 3221 3223 3225 3227
3178 3179 3181 3182 3183 3185 3186 3188 3190 3191 3190 3189 3190 3193 3196 3200 3205 3208 3210 3212 3215 3216 3217 3218 3217 3217 3217 3218 3218 3217 3217 3217 3216 3216 3216 3216 3217 3218 3219 3221 3222 3224 3225
3178 3179 3179 3180 3181 3182 3183 3186 3188 3189 3189 3189 3190 3193 3197 3200 3204 3208 3210 3213 3215 3217 3218 3218 3218 3218 3218 3218 3218 3218 3218 3218 3218 3218 3218 3218 3219 3220 3220 3221 3222 3223 3224
3177 3178 3178 3178 3179 3180 3181 3184 3186 3187 3187 3187 3190 3193 3196 3200 3204 3208 3210 3213 3215 3217 3218 3219 3219 3219 3218 3218 3218 3218 3219 3219 3220 3220 3220 3220 3220 3221 3220 3221 3222 3223 3224
3177 3177 3177 3177 3177 3178 3179 3182 3184 3186 3186 3187 3189 3191 3196 3200 3204 3207 3211 3214 3216 3216 3218 3219 3220 3219 3219 3219 3219 3219 3220 3220 3221 3221 3221 3221 3221 3222 3222 3222 3223 3224 3225
3176 3176 3176 3175 3176 3176 3178 3180 3182 3185 3186 3187 3189 3192 3195 3199 3204 3207 3210 3213 3214 3217 3218 3219 3220 3219 3219 3219 3219 3220 3221 3221 3221 3222 3222 3223 3223 3223 3223 3224 3225 3225 3226
3175 3175 3175 3174 3174 3175 3177 3178 3180 3183 3185 3186 3188 3192 3195 3199 3203 3207 3210 3212 3213 3216 3218 3218 3219 3218 3219 3219 3219 3220 3222 3222 3222 3221 3222 3223 3223 3224 3224 3224 3225 3226 3226
3175 3175 3174 3174 3174 3174 3176 3178 3179 3182 3185 3186 3189 3192 3196 3199 3203 3206 3209 3211 3212 3215 3217 3217 3218 3219 3219 3220 3219 3220 3221 3223 3222 3221 3222 3223 3223 3224 3225 3226 3225 3225 3226
3174 3174 3174 3174 3174 3174 3176 3178 3179 3182 3185 3187 3189 3192 3196 3199 3202 3205 3207 3210 3211 3213 3216 3216 3219 3219 3219 3219 3219 3219 3219 3220 3220 3222 3223 3223 3223 3224 3224 3225 3225 3226 3225
3173 3174 3174 3174 3173 3174 3175 3177 3179 3181 3184 3187 3189 3192 3196 3199 3201 3204 3206 3209 3210 3213 3214 3216 3217 3217 3218 3218 3219 3219 3220 3220 3221 3222 3224 3223 3223 3223 3223 3224 3224 3225 3225
3174 3174 3174 3173 3173 3174 3175 3176 3178 3180 3182 3185 3188 3191 3194 3197 3199 3202 3204 3207 3209 3211 3213 3215 3216 3216 3217 3217 3218 3219 3220 3220 3220 3220 3221 3222 3224 3223 3223 3222 3223 3223 3224